Regional Weather Roundup
Issued by NWS

Home | Current Version | Previous Version | Graphics & Text | Print | Product List | Glossary On
Versions: 1 2 3 4 5 6 7 8 9 10 11 12 13 14 15 16 17 18 19 20 21 22 23 24 25 26 27 28 29 30 31 32 33 34 35 36 37 38 39 40 41 42 43 44 45 46 47
000
ASUS43 KDMX 301507
RWRIA

WEATHER ROUNDUP FOR IOWA
NATIONAL WEATHER SERVICE DES MOINES IA
1000 AM CDT WED JUL 30 2014

NOTE: "FAIR" INDICATES FEW OR NO CLOUDS BELOW 12,000 FEET WITH NO
SIGNIFICANT WEATHER AND/OR OBSTRUCTIONS TO VISIBILITY.

* - THESE STATIONS ARE NOT NWS STATIONS...THUS NOT UNDER NWS
QUALITY CONTROL.  THEY ALSO DO NOT REPORT WEATHER SUCH
AS PRECIPITATION OR FOG.

IAZ001>003-012>014-020>022-031>034-043>046-301600-
   NORTHWEST IOWA

CITY           SKY/WX    TMP DP  RH WIND       PRES   REMARKS
CARROLL *      SUNNY     70  59  68 VRB5      30.14F
CHEROKEE *     SUNNY     70  59  68 N6        30.16S
DENISON *      SUNNY     68  59  73 N5        30.14S
LE MARS *      SUNNY     68  59  73 CALM      30.17S
ORANGE CITY *  SUNNY     72  57  60 N6        30.16F
SHELDON *      SUNNY     68  59  73 NW7       30.16S
SIOUX CITY     SUNNY     71  57  61 VRB3      30.16S
SPENCER        SUNNY     71  59  65 N8        30.16R
STORM LAKE *   SUNNY     70  59  68 VRB7      30.16F
$$

IAZ055>058-069>071-079>083-090>094-301600-
   SOUTHWEST IOWA

CITY           SKY/WX    TMP DP  RH WIND       PRES   REMARKS
ATLANTIC *     SUNNY     70  59  68 CALM      30.15S
AUDUBON *      SUNNY     73  63  68 CALM      30.16S
CLARINDA *     SUNNY     70  59  68 N7        30.16S
COUNCIL BLFS * SUNNY     72  59  64 N7        30.15S
CRESTON *      SUNNY     72  57  60 CALM      30.15S
HARLAN  *      SUNNY     70  57  64 VRB7      30.19
LAMONI         SUNNY     71  58  63 N8        30.13F
RED OAK *      SUNNY     72  59  64 NE6       30.15F
SHENANDOAH *   SUNNY     72  61  68 VRB5      30.15F
$$

IAZ047>049-059>061-072>074-084-301600-
   CENTRAL IOWA

CITY           SKY/WX    TMP DP  RH WIND       PRES   REMARKS
AMES           SUNNY     71  58  63 VRB6      30.13R
ANKENY *       SUNNY     72  59  64 N6        30.13S
CHARITON *     SUNNY     72  59  64 N6        30.13S
DES MOINES     MOSUNNY   74  58  57 N6        30.12S
GRINNELL*      MOSUNNY   70  61  73 NW6       30.12S
KNOXVILLE *    SUNNY     70  59  68 NW6       30.11S
MARSHALLTOWN   SUNNY     70  61  73 NW6       30.11S
PELLA *        SUNNY     72  61  68 W5        30.13S
PERRY *          N/A     70  59  68 N5        30.14S
$$

IAZ004>006-015-016-023>025-035-036-301600-
   NORTH CENTRAL IOWA

CITY           SKY/WX    TMP DP  RH WIND       PRES   REMARKS
ALGONA *       SUNNY     68  59  73 N7        30.14S
CLARION *      SUNNY     68  61  77 N6        30.13S
ESTHERVILLE    SUNNY     69  58  67 N7        30.15S
FORT DODGE *   SUNNY     70  59  68 N5        30.15R
MASON CITY     SUNNY     70  59  68 NW7       30.13S
FOREST CITY *  SUNNY     70  59  68 E7        30.13S
IOWA FALLS *     N/A     72  59  64 NW7       30.13R
$$

IAZ007>011-017>019-026>030-037>042-050>054-066-301600-
   NORTHEAST IOWA

CITY           SKY/WX    TMP DP  RH WIND       PRES   REMARKS
CEDAR RAPIDS   SUNNY     68  59  73 NW7       30.09S
CHARLES CITY * SUNNY     68  59  73 N6        30.11S
CLINTON *      SUNNY     70  59  68 CALM      30.10S
DECORAH *      SUNNY     68  59  73 N3        30.09S
DUBUQUE        SUNNY     69  59  70 N5        30.09R
MONTICELLO *   SUNNY     70  63  78 MISG      30.08S
OELWEIN *      SUNNY     70  61  73 VRB6      30.10S
WATERLOO       SUNNY     70  59  68 NW7       30.09S
$$

IAZ064-065-067-068-078-301600-
   EAST CENTRAL IOWA

CITY           SKY/WX    TMP DP  RH WIND       PRES   REMARKS
DAVENPORT      MOSUNNY   70  61  73 W3        30.09R
IOWA CITY      SUNNY     71  60  68 NW6       30.10S
MT. PLEASANT * SUNNY     72  59  64 W3        30.11R
MUSCATINE *    SUNNY     72  59  64 W6        30.09S
QUAD CITIES    MOSUNNY   71  58  63 CALM      30.08S
$$

IAZ062-063-075>077-085>089-095>099-301600-
   SOUTHEAST IOWA

CITY           SKY/WX    TMP DP  RH WIND       PRES   REMARKS
BURLINGTON     SUNNY     72  61  68 NW5       30.09S
FAIRFIELD *    SUNNY     70  61  73 NW7       30.12R
FORT MADISON * SUNNY     73  63  68 NW3       30.11S
KEOKUK *       SUNNY     73  61  64 N7        30.10S
OSKALOOSA *      N/A     70  63  78 NW3       30.12S
CENTERVILLE *  SUNNY     72  59  64 N5        30.14S
OTTUMWA        SUNNY     71  60  68 NW7       30.10F
WASHINGTON *   SUNNY     70  63  78 W5        30.11R
$$

ABBREVIATIONS USED IN REMARKS
   TC - TEMPERATURES IN CELSIUS
  WCI - WIND CHILL INDEX
   HX - HEAT INDEX
  VSB - VISIBILITY
$$



USA.gov is the U.S. government's official web portal to all federal, state and local government web resources and services.